Weather in Ol'khovo

Russia / Smolensk Oblast     55°02′24″N   32°47′23″E
temp.,
°C
wind,
m/s
gust,
m/s
humid.,
%
clouds,
%
prec.,
mm/h
press.,
hPa
HPBL,
m
20 may, fri
fri2000:00+8n2894100 0.2 1018352
03:00+7n239814 0.2 101893
06:00+6ne24955 0.0 1019141
09:00+11ene2159100 0.0 1019675
12:00+13ene2147100 0.0 10181137
15:00+13e1149100 0.0 1017947
18:00+10ne1275100 0.3 101675
21:00+8se2493100 1.8 1015115
21 may, sat
sat2100:00+7sse1294100 0.4 101353
03:00+7e2695100 2.0 1012208
06:00+7ese2997100 2.3 1011555
09:00+8se4992100 4.8 1010848
12:00+9se4989100 0.1 1010851
15:00+9se41088100 0.1 1008745
18:00+8se41186100 0.1 1006707
21:00+7e31092100 0.6 1005618
22 may, sun
sun2200:00+7e41090100 0.3 1003962
03:00+7e31095100 1.5 1002679
06:00+6ne41093100 1.1 1002490
09:00+9ne510755 1.1 1003901
12:00+11ne586093 0.1 10041510
15:00+12ene584590 0.1 10062003
18:00+12ne47509 0.0 10061975
21:00+6n116867 0.0 100810
23 may, mon
mon2300:00+5n227399 0.0 100914
03:00+3n22775 0.0 101020
06:00+3nnw26745 0.0 1011145
09:00+10n46490 0.0 1010820
12:00+12nnw46355 0.0 10102025
15:00+14nnw46300 0.0 10092205
18:00+14nnw37435 0.0 10092373
21:00+7nw35664 0.0 101177
24 may, tue
tue2400:00+5nnw26817 0.0 1012104
03:00+3nnw258016 0.0 101382
06:00+4nnw277155 0.0 1015165
09:00+11nnw36495 0.0 1014554
12:00+17nnw474318 0.0 10132044
15:00+19nnw4737100 0.0 10132588
18:00+18nw46485 0.0 10141191
21:00+11nw227538 0.0 101531